TimeEST,TemperatureF,Dew PointF,Humidity,Sea Level PressureIn,VisibilityMPH,Wind Direction,Wind SpeedMPH,Gust SpeedMPH,PrecipitationIn,Events,Conditions,WindDirDegrees,DateUTC
12:53 AM,54.0,51.1,90,30.17,10.0,NNE,4.6,-,N/A,,Clear,20,2012-11-19 05:53:00
1:53 AM,55.0,53.1,93,30.16,10.0,North,6.9,-,N/A,,Clear,360,2012-11-19 06:53:00
2:53 AM,55.0,52.0,89,30.17,10.0,NNW,8.1,-,N/A,,Clear,330,2012-11-19 07:53:00
3:53 AM,54.0,51.1,90,30.17,10.0,NNW,6.9,-,N/A,,Clear,330,2012-11-19 08:53:00
4:53 AM,53.1,51.1,93,30.17,10.0,NNW,10.4,-,N/A,,Clear,340,2012-11-19 09:53:00
5:00 AM,53.1,51.1,93,30.16,10.0,North,8.1,-,N/A,,Partly Cloudy,350,2012-11-19 10:00:00
5:34 AM,53.1,51.1,93,30.16,10.0,NNW,8.1,-,N/A,,Mostly Cloudy,340,2012-11-19 10:34:00
5:53 AM,53.1,51.1,93,30.16,9.0,NNW,9.2,-,N/A,,Mostly Cloudy,330,2012-11-19 10:53:00
6:08 AM,53.1,51.1,93,30.16,10.0,North,12.7,-,N/A,,Scattered Clouds,360,2012-11-19 11:08:00
6:18 AM,52.0,50.0,93,30.17,10.0,North,10.4,-,N/A,,Mostly Cloudy,360,2012-11-19 11:18:00
6:53 AM,52.0,50.0,93,30.17,8.0,North,10.4,-,N/A,,Overcast,360,2012-11-19 11:53:00
7:17 AM,52.0,51.1,97,30.18,7.0,North,9.2,-,N/A,,Overcast,360,2012-11-19 12:17:00
7:48 AM,51.8,51.8,100,30.18,10.0,North,9.2,-,N/A,,Overcast,10,2012-11-19 12:48:00
7:53 AM,53.1,51.1,93,30.18,10.0,North,10.4,-,N/A,,Overcast,10,2012-11-19 12:53:00
8:05 AM,53.1,51.1,93,30.18,10.0,NNE,10.4,-,N/A,,Overcast,20,2012-11-19 13:05:00
8:30 AM,53.1,52.0,96,30.18,10.0,North,9.2,-,N/A,,Overcast,360,2012-11-19 13:30:00
8:41 AM,53.1,52.0,96,30.18,10.0,North,9.2,-,N/A,,Overcast,360,2012-11-19 13:41:00
8:53 AM,54.0,52.0,93,30.18,10.0,North,10.4,17.3,N/A,,Overcast,360,2012-11-19 13:53:00
9:10 AM,54.0,52.0,93,30.18,10.0,North,11.5,-,N/A,,Overcast,360,2012-11-19 14:10:00
9:40 AM,54.0,52.0,93,30.19,10.0,North,9.2,-,N/A,,Overcast,360,2012-11-19 14:40:00
9:53 AM,55.0,53.1,93,30.19,10.0,North,9.2,-,N/A,,Overcast,350,2012-11-19 14:53:00
10:50 AM,55.4,53.6,94,30.19,10.0,North,9.2,-,N/A,,Overcast,10,2012-11-19 15:50:00
10:53 AM,55.0,52.0,89,30.19,10.0,North,8.1,-,N/A,,Overcast,10,2012-11-19 15:53:00
11:53 AM,55.9,53.1,90,30.17,10.0,NNW,8.1,-,N/A,,Overcast,330,2012-11-19 16:53:00
12:53 PM,60.1,52.0,75,30.13,10.0,North,6.9,-,N/A,,Overcast,360,2012-11-19 17:53:00
2:53 PM,59.0,52.0,78,30.11,10.0,North,8.1,-,N/A,,Overcast,10,2012-11-19 19:53:00
3:53 PM,57.9,52.0,81,30.11,9.0,NE,9.2,-,N/A,,Overcast,40,2012-11-19 20:53:00
4:53 PM,57.9,52.0,81,30.12,6.0,NNE,9.2,-,N/A,,Haze,30,2012-11-19 21:53:00
5:41 PM,57.9,52.0,81,30.13,9.0,NNE,9.2,-,N/A,,Overcast,30,2012-11-19 22:41:00
5:53 PM,57.9,52.0,81,30.13,9.0,North,6.9,-,N/A,,Overcast,10,2012-11-19 22:53:00
6:51 PM,57.2,51.8,82,30.13,9.0,NNE,8.1,-,N/A,,Overcast,30,2012-11-19 23:51:00
6:53 PM,57.9,52.0,81,30.13,9.0,NNE,10.4,-,N/A,,Overcast,30,2012-11-19 23:53:00
7:53 PM,57.0,52.0,83,30.13,8.0,NNE,8.1,-,N/A,,Overcast,30,2012-11-20 00:53:00
8:48 PM,57.2,51.8,82,30.13,10.0,North,8.1,-,N/A,,Overcast,360,2012-11-20 01:48:00
8:53 PM,57.0,52.0,83,30.13,10.0,North,8.1,-,N/A,,Overcast,360,2012-11-20 01:53:00
9:29 PM,57.0,52.0,83,30.13,10.0,North,16.1,-,N/A,,Overcast,360,2012-11-20 02:29:00
9:53 PM,57.0,52.0,83,30.13,10.0,NNW,11.5,-,N/A,,Overcast,340,2012-11-20 02:53:00
10:53 PM,55.9,53.1,90,30.12,8.0,NNW,8.1,-,N/A,,Overcast,330,2012-11-20 03:53:00
11:20 PM,55.9,53.1,90,30.11,10.0,NNW,9.2,-,N/A,,Overcast,330,2012-11-20 04:20:00
11:53 PM,55.9,53.1,90,30.10,10.0,NNW,8.1,-,N/A,,Overcast,330,2012-11-20 04:53:00